Location: Annoux
(47.6251°N, 4.0509°E)
Time: 09:07:43
(UTC+00:00)

Daily predictions for brighter satellites

Satellite Brightness Start Highest point End
(mag) Time Altitude Azimuth Time Altitude Azimuth Time Altitude Azimuth
STARLINK-1096 3.9 20:05:00 10° WNW 20:09:05 60° SW 20:13:10 10° SE
Okean 3 3.5 20:05:12 10° S 20:09:29 71° E 20:13:48 10° NNE
Cosmos 2369 Rocket 4.1 20:10:10 10° E 20:10:44 10° E 20:11:17 10° E
STARLINK-1104 4.2 20:07:14 10° WNW 20:11:20 56° NNE 20:15:25 10° E
STARLINK-1230 3.6 20:08:02 10° WSW 20:12:11 82° SSE 20:16:21 10° ENE
STARLINK-1079 4.0 20:09:59 10° WNW 20:14:03 56° SW 20:18:06 10° SE
STARLINK-1144 4.1 20:12:13 10° WNW 20:16:19 58° NNE 20:20:25 10° E
SL-4 R/B 2.6 20:14:10 10° NW 20:16:59 33° WSW 20:19:36 10° S
STARLINK-1243 3.6 20:13:01 10° WSW 20:17:10 87° SSE 20:21:20 10° ENE
Cosmos 2221 Rocket 3.6 20:12:51 10° S 20:17:21 80° E 20:21:57 10° NNE
STARLINK-1116 4.1 20:14:58 10° WNW 20:19:01 52° SW 20:23:02 10° SE
SPOT 5 4.3 20:15:01 10° ESE 20:19:28 29° ENE 20:23:59 10° N
NOSS 8 (F) 4.3 20:17:17 10° SSW 20:20:27 49° SE 20:23:25 10° NE
Meteor 1-13 Rocket 4.3 20:15:28 10° S 20:21:00 64° E 20:26:43 10° NNE
STARLINK-1103 4.0 20:17:12 10° WNW 20:21:19 61° NNE 20:25:25 10° ESE
STARLINK-1236 3.7 20:17:59 10° WSW 20:22:08 88° NNW 20:26:18 10° ENE
ERS-1 Rocket 3.9 20:20:05 10° SE 20:24:34 34° ENE 20:29:05 10° N
STARLINK-1101 4.0 20:22:10 10° WNW 20:26:18 64° NNE 20:30:25 10° ESE
STARLINK-1094 4.3 20:24:58 10° WNW 20:28:57 44° SW 20:32:47 11° SE
USA 238 DEB 4.5 20:23:45 10° NW 20:30:41 50° NE 20:37:50 10° ESE
USA 238 4.5 20:23:51 10° NW 20:30:46 50° NE 20:37:57 10° ESE
USA 245 2.8 20:27:56 10° SSE 20:30:49 47° ENE 20:33:16 10° N
STARLINK-1102 3.9 20:27:09 10° WNW 20:31:18 68° NNE 20:35:26 10° ESE
STARLINK-1269 3.8 20:27:58 10° WSW 20:32:06 79° NNW 20:36:17 10° ENE
Cosmos 2278 Rocket 3.0 20:27:43 10° SW 20:33:18 58° WNW 20:38:57 10° NNE
TSX-5 4.4 20:27:57 10° SSW 20:33:31 58° ESE 20:37:51 10° NE
STARLINK-1117 4.4 20:29:58 10° WNW 20:33:53 41° SW 20:37:34 11° SSE
Okean 1 Rocket 3.7 20:29:37 10° N 20:33:54 43° ENE 20:37:54 11° SSE
Resurs 01 Rocket 2.3 20:29:58 10° S 20:34:21 56° W 20:38:45 10° NNW
Cosmos 1741 Rocket 4.0 20:29:12 10° NNW 20:34:28 90° WSW 20:39:41 10° SSE
Okean 2 Rocket 3.5 20:30:17 10° NNW 20:34:40 62° W 20:38:59 10° S
Nadezhda 4 Rocket 4.4 20:29:30 10° SSE 20:35:15 44° E 20:41:00 10° NNE
STARLINK-1111 3.8 20:32:08 10° WNW 20:36:17 71° NNE 20:40:25 10° ESE
STARLINK-1200 3.9 20:32:56 10° WSW 20:37:05 75° NNW 20:41:14 10° ENE
MetOp-B 4.2 20:32:50 10° SSE 20:38:12 87° WSW 20:43:36 10° NNW
STARLINK-1073 3.7 20:37:07 10° WNW 20:41:16 75° NNE 20:45:21 10° ESE
SL-8 R/B 3.7 20:36:28 10° WNW 20:41:16 81° SSW 20:46:06 10° ESE
STARLINK-1192 3.9 20:37:56 10° WSW 20:42:05 71° NNW 20:46:14 10° ENE
Cosmos 2279 Rocket 4.2 20:36:26 10° NNW 20:42:41 77° W 20:48:52 10° S
Cosmos 1850 Rocket 4.2 20:38:41 10° NNW 20:44:01 74° WSW 20:49:21 10° SSE
Cosmos 371 Rocket 3.7 20:40:26 10° SSW 20:45:16 68° WNW 20:50:09 10° NNE
ATLAS 3B CENTAUR R/B 4.4 20:35:12 10° SW 20:45:34 23° S 20:50:57 13° SE
STARLINK-1121 3.7 20:42:05 10° WNW 20:46:15 79° NNE 20:50:08 12° ESE
SL-4 R/B 3.8 20:43:33 10° S 20:46:42 18° SE 20:49:53 10° E
STARLINK-1244 4.0 20:42:56 10° WSW 20:47:03 67° NNW 20:51:12 10° ENE
Cosmos 1110 Rocket 4.2 20:42:27 10° S 20:47:25 50° ESE 20:52:25 10° NNE
Terra 2.8 20:44:22 12° SE 20:48:13 33° ENE 20:52:29 10° N
Spot 2 Rocket 3.5 20:44:18 10° SSE 20:49:20 84° WSW 20:54:25 10° NNW
Cosmos 2151 Rocket 4.1 20:44:55 10° NNW 20:49:25 63° W 20:53:53 10° S
Abrixas rocket 2.2 20:46:54 10° W 20:49:47 52° SSW 20:51:50 17° SE
SPOT 1/Viking Rocket 3.6 20:45:17 11° SSE 20:50:13 74° ENE 20:55:22 10° N
STARLINK-1106 3.6 20:47:05 10° WNW 20:51:15 84° NNE 20:54:56 13° ESE
CARTOSAT-1 4.0 20:47:49 14° SE 20:51:22 48° ENE 20:55:33 10° N
NOSS 8 (H) 4.1 20:48:27 10° SSW 20:51:36 63° SE 20:54:38 10° NE
STARLINK-1138 4.1 20:47:56 10° WSW 20:52:03 64° NNW 20:56:11 10° ENE
STARLINK-1112 3.6 20:52:02 10° WNW 20:56:13 89° NE 20:59:42 14° ESE
STARLINK-1143 4.2 20:52:55 10° WSW 20:57:01 61° NNW 21:01:09 10° ENE
Aureole 2 4.0 20:55:25 10° NNW 20:58:35 85° WSW 21:00:36 18° SSE
STARLINK-1128 3.6 20:57:01 10° WNW 21:01:11 86° SSW 21:04:28 16° ESE
STARLINK-1241 4.3 20:57:58 10° W 21:02:03 58° NNW 21:06:10 10° ENE
Cosmos 1331 Rocket 4.0 20:59:07 10° S 21:04:11 62° ESE 21:09:19 10° NNE
deb Kosmos-1763 4.2 21:00:41 10° NNW 21:04:17 67° WSW 21:06:57 17° S
Aureole 2 Rocket 2.3 21:01:54 10° SSW 21:05:01 72° WNW 21:07:59 10° NNE
STARLINK-1113 3.6 21:02:00 10° WNW 21:06:10 81° SSW 21:09:16 17° SE
STARLINK-1239 4.4 21:02:57 10° W 21:07:02 55° NNW 21:11:08 10° ENE
Cosmos 1733 4.0 21:03:44 10° N 21:07:18 37° ENE 21:09:32 19° SE
Cosmos 1437 Rocket 3.5 21:06:15 10° SSW 21:09:56 51° WNW 21:13:42 10° N
STARLINK-1119 3.6 21:07:01 10° WNW 21:11:10 76° SSW 21:14:04 19° SE
STARLINK-1240 4.5 21:07:57 10° W 21:12:01 53° NNW 21:16:06 10° ENE
Cosmos 1378 3.2 21:09:41 16° S 21:12:27 59° E 21:16:08 10° NNE
Cosmos 1302 Rocket 4.5 21:10:14 14° S 21:14:22 41° ESE 21:19:20 10° NE
ISS -1.4 21:13:55 10° WSW 21:15:36 13° SW 21:17:02 11° SSW
STARLINK-1114 3.6 21:11:58 10° WNW 21:16:07 71° SSW 21:18:49 21° SE
Cosmos 1242 Rocket 4.2 21:15:26 17° ESE 21:16:30 19° E 21:19:11 10° NE
USA 215 4.4 21:10:25 10° E 21:16:31 43° NNE 21:22:37 10° WNW
Cosmos 304 Rocket 4.1 21:11:53 10° SSW 21:16:39 71° WNW 21:21:28 10° NNE
Lacrosse 5 3.7 21:14:53 10° WNW 21:18:33 20° WSW 21:22:07 10° S
Cosmos 1092 Rocket 4.1 21:15:31 14° S 21:20:41 61° E 21:26:45 10° NNE
STARLINK-1130 (DARKSAT) 3.7 21:16:58 10° WNW 21:21:05 67° SSW 21:23:36 22° SE
NOSS 2-2 (D) 3.0 21:17:50 10° SW 21:21:24 78° SE 21:25:24 10° NE
CENTAUR R/B 3.5 21:15:32 10° NW 21:23:20 60° NE 21:31:08 13° ESE
STARLINK-1084 3.7 21:21:58 10° WNW 21:26:04 62° SSW 21:28:23 24° SE
ATLAS 3B R/B 3.9 21:20:12 10° NNW 21:26:20 35° NNE 21:32:37 10° E
SL-27 R/B 3.1 21:24:16 10° N 21:27:45 45° ENE 21:29:28 25° SE
Cosmos 1378 Rocket 4.1 21:23:38 10° SSW 21:27:58 57° WNW 21:32:18 10° N
NOSS 3-2 (C) 4.3 21:21:16 10° NW 21:28:38 68° NE 21:35:36 16° SE
Cosmos 1766 3.2 21:26:22 10° N 21:30:23 90° W 21:32:47 23° S
STARLINK-1098 3.8 21:26:57 10° WNW 21:31:02 57° SW 21:33:10 26° SE
STARLINK-1123 3.9 21:31:56 10° WNW 21:35:58 53° SW 21:37:56 27° SSE
Cosmos 1943 Rocket 2.1 21:31:58 10° SSW 21:37:28 69° ESE 21:43:03 10° NNE
Cosmos 2297 4.3 21:32:04 10° SW 21:37:41 60° WNW 21:43:23 10° NNE
Cosmos 1900 4.5 21:32:57 10° NW 21:37:58 68° WSW 21:41:01 24° SSE
NOSS 2-2 (E) 3.8 21:35:11 10° SW 21:38:44 59° NW 21:42:53 10° NE
NOSS 3-4 (A) 4.3 21:36:32 22° SSE 21:39:00 29° ESE 21:44:13 10° ENE
NOSS 3-4 (C) 4.3 21:36:40 22° SSE 21:39:06 28° ESE 21:44:18 10° ENE
STARLINK-1097 4.0 21:36:57 10° WNW 21:40:58 49° SW 21:42:45 29° SSE
Cosmos 2082 Rocket 4.2 21:38:35 10° NW 21:42:42 21° W 21:46:49 10° SSW
SeaSat 1 3.7 21:39:38 10° NE 21:43:31 23° ESE 21:44:34 21° SE
STARLINK-1099 4.1 21:41:56 10° WNW 21:45:55 46° SW 21:47:31 30° SSE
Cosmos 1975 Rocket 3.0 21:44:36 22° S 21:47:26 82° E 21:51:52 10° N
STARLINK-1212 3.9 21:45:38 10° WNW 21:48:38 43° NNE 21:50:47 17° E
STARLINK-1105 3.9 21:46:07 10° WNW 21:49:07 43° NNE 21:51:13 17° E
STARLINK-1247 3.9 21:46:59 10° WNW 21:50:00 44° NNE 21:52:07 17° E
STARLINK-1227 3.9 21:47:29 10° WNW 21:50:29 44° NNE 21:52:32 17° E
BREEZE-M DEB (TANK) 3.7 21:34:28 10° WSW 21:50:45 82° SSE 21:54:48 10° ENE
STARLINK-1104 4.2 21:46:56 10° WNW 21:50:52 42° SW 21:52:18 30° S
Cosmos 292 Rocket 4.0 21:48:20 25° S 21:50:53 51° ESE 21:55:36 10° NNE
STARLINK-1226 3.9 21:48:20 10° WNW 21:51:21 44° NNE 21:53:23 18° E
BREEZE-M DEB (TANK) 3.2 21:47:36 10° W 21:51:46 68° N 21:55:26 10° E
STARLINK-1215 3.9 21:49:14 10° WNW 21:52:16 45° NNE 21:54:16 18° E
Cosmos 2369 Rocket 2.2 21:49:04 16° SSW 21:53:39 67° ESE 21:59:16 10° NNE
STARLINK-1217 3.8 21:51:03 10° WNW 21:54:04 46° NNE 21:56:00 19° E
STARLINK-1229 3.8 21:51:58 10° WNW 21:54:59 46° NNE 21:56:54 19° E
STARLINK-1144 4.3 21:51:57 10° WNW 21:55:50 39° SW 21:57:05 31° S
STARLINK-1270 3.8 21:52:51 10° WNW 21:55:53 46° NNE 21:57:46 20° E
SPOT 5 3.8 21:53:31 18° SSW 21:57:16 48° W 22:02:27 10° NNW
STARLINK-1189 3.7 21:54:38 10° WNW 21:57:41 47° NNE 21:59:29 21° E
Aureole 3 Rocket 4.4 21:52:11 10° N 21:58:22 72° E 22:03:54 23° SSE
STARLINK-1188 3.7 21:55:33 10° WNW 21:58:36 48° NNE 22:00:22 21° E
ATLAS CENTAUR R/B 2.7 21:59:35 24° ESE 21:59:35 24° ESE 22:02:52 10° ENE
STARLINK-1187 3.5 21:56:39 10° WNW 21:59:42 52° NNE 22:01:14 25° E
STARLINK-1103 4.4 21:56:57 10° WNW 22:00:46 36° SW 22:01:51 30° S
Cosmos 1340 Rocket 4.4 21:57:31 10° NNE 22:00:56 25° ENE 22:02:31 20° ESE
STARLINK-1191 3.7 21:58:00 10° WNW 22:01:02 49° NNE 22:02:40 23° E
STARLINK-1221 3.6 21:58:57 10° WNW 22:01:59 50° NNE 22:03:34 24° E
STARLINK-1222 3.6 21:59:47 10° WNW 22:02:50 50° NNE 22:04:24 24° E
ERS-1 Rocket 4.1 21:59:40 15° SSW 22:03:19 35° W 22:07:57 10° NNW
NOSS 2-2 (C) 4.4 21:59:58 10° WSW 22:03:26 44° NW 22:07:25 10° NNE
STARLINK-1214 3.6 22:00:41 10° WNW 22:03:44 51° NNE 22:05:16 25° E
Cosmos 1025 Rocket 3.6 22:02:58 31° SE 22:04:21 42° E 22:08:25 10° NNE
EXPRESS MD2 4.1 22:01:02 10° W 22:04:47 79° NNW 22:12:37 10° ENE
Okean 2 3.9 22:02:00 19° SSW 22:04:49 57° WNW 22:08:57 10° N
Thor Agena Rocket 4.0 21:59:45 10° NNE 22:04:52 47° E 22:07:12 29° SSE
Cosmos 2026 Rocket 4.0 22:00:23 19° S 22:05:08 87° W 22:11:33 10° N
STARLINK-1101 4.5 22:01:58 10° WNW 22:05:43 33° SW 22:06:38 30° SSW
ATLAS 2AS CENTAUR R/B 3.2 22:00:30 15° S 22:06:56 54° ESE 22:14:37 10° NE
BREEZE M DEB (TANK) 2.1 22:03:39 10° W 22:07:17 71° NNW 22:08:33 22° ENE
Cosmos 1656 Rocket 4.1 22:04:50 28° SSE 22:07:21 45° ESE 22:12:39 10° NE
Cosmos 1553 Rocket 4.0 22:01:54 10° N 22:08:13 73° E 22:11:43 27° SSE
BREEZE-M DEB (TANK) 4.1 21:54:24 10° WNW 22:09:08 79° SSW 22:11:56 24° ESE
Cosmos 1953 3.3 22:05:43 10° N 22:09:24 34° ENE 22:10:41 27° ESE
STARLINK-1228 3.3 22:06:07 10° WNW 22:09:37 71° NNE 22:11:07 31° ESE
NOSS 3-2 (A) 4.3 22:02:33 10° NW 22:09:59 61° WSW 22:15:10 25° SSE
Cosmos 1470 2.6 22:06:41 10° N 22:10:34 79° E 22:11:51 41° SSE
APEX 4.2 22:06:47 17° SSW 22:11:48 70° ESE 22:17:08 10° NNE
STARLINK-1235 3.2 22:08:51 10° WNW 22:12:05 68° NNE 22:13:11 37° E
Cosmos 968 Rocket 3.4 22:09:55 10° NNW 22:15:06 89° WSW 22:17:31 32° SSE
Cosmos 1455 Rocket 3.5 22:13:11 10° NNW 22:17:26 55° W 22:19:25 29° SSW
Cosmos 1655 Rocket 4.2 22:15:02 28° SSE 22:18:14 56° E 22:24:20 10° NNE
SL-4 R/B 3.2 22:20:18 14° NE 22:20:18 14° NE 22:21:12 10° NNE
ATLAS 5 CENTAUR R/B 2.0 22:21:46 42° SE 22:21:46 42° SE 22:24:09 10° ENE
USA 238 DEB 4.3 22:14:50 10° NW 22:21:46 51° WSW 22:25:51 26° S
USA 238 4.2 22:14:56 10° NW 22:21:53 52° WSW 22:25:58 26° S
Cosmos 1758 3.3 22:20:00 10° N 22:24:05 84° WSW 22:25:25 42° S
SL-4 R/B 2.3 22:21:01 10° SW 22:25:47 67° SSE 22:30:36 10° ENE
Terra 3.1 22:23:15 19° SSW 22:25:56 33° W 22:30:15 10° NNW
Cosmos 1842 4.3 22:24:08 20° SW 22:26:24 41° WNW 22:30:07 10° N
STARLINK-1234 2.8 22:26:36 10° WNW 22:29:52 87° SW 22:30:16 66° SE
In-Cosmos 22 4.5 22:30:05 32° SE 22:32:02 47° E 22:37:05 10° NNE
STARLINK-1233 4.4 22:31:10 10° WNW 22:35:14 50° NNE 22:39:12 10° E
Cosmos 1503 Rocket 4.0 22:29:56 10° NNW 22:35:16 84° WSW 22:37:35 35° SSE
STARLINK-1209 2.8 22:32:46 10° WNW 22:36:03 76° SSW 22:36:13 73° S
Cosmos 2266 Rocket 4.2 22:33:43 31° SSE 22:36:30 55° E 22:42:23 10° NNE
STARLINK-1204 4.4 22:36:09 10° WNW 22:40:14 52° NNE 22:43:59 12° E
Meteor 2-8 Rocket 4.4 22:34:52 10° N 22:41:02 87° W 22:44:07 32° S
SJ 16-02 4.3 22:42:21 10° NE 22:42:39 10° NE 22:42:56 10° NE
Cosmos 2263 4.3 22:39:18 18° SW 22:43:34 73° WNW 22:49:12 10° NNE
STARLINK-1238 4.3 22:41:10 10° WNW 22:45:15 54° NNE 22:48:47 13° E
Cosmos 1536 Rocket 3.5 22:45:43 40° SSW 22:47:16 79° W 22:51:39 10° N
Cosmos 1674 3.5 22:48:20 34° ESE 22:48:40 35° E 22:52:08 10° NNE
STARLINK-1201 4.2 22:46:08 10° WNW 22:50:14 57° NNE 22:53:33 15° E
Cosmos 1271 Rocket 3.4 22:49:29 31° SW 22:50:59 48° WNW 22:54:50 10° N
Cosmos 1242 Rocket 4.1 22:49:25 21° WSW 22:51:09 32° WNW 22:54:31 10° N
STARLINK-60 3.3 22:52:20 18° WSW 22:54:30 64° NNW 22:57:41 10° ENE
Cosmos 1354 Rocket 4.1 22:49:19 10° NNW 22:54:34 66° WSW 22:56:35 37° S
STARLINK-1206 4.1 22:51:08 10° WNW 22:55:15 59° NNE 22:58:21 17° E
Spot 4 4.0 22:53:29 38° S 22:55:16 65° WSW 23:00:06 10° NNW
COSMOS 2455 2.8 22:52:49 31° SSW 22:55:43 67° ESE 23:01:43 10° NE
Cosmos 883 Rocket 4.5 22:49:57 10° N 22:56:06 76° E 22:58:57 34° SSE
USA 215 3.3 22:52:57 12° ESE 22:59:05 78° NNE 23:05:40 10° NW
STARLINK-1205 4.0 22:56:06 10° WNW 23:00:14 62° NNE 23:03:07 19° E
Cosmos 1707 3.5 22:59:44 33° SW 23:01:02 46° WNW 23:04:48 10° N
Cosmos 2297 Rocket 3.9 22:56:55 10° N 23:01:42 27° NE 23:06:27 10° ESE
Helios 1A 3.7 23:01:35 33° ESE 23:02:56 44° ENE 23:06:56 10° N
Lacrosse 4 Rocket 4.4 23:03:06 10° N 23:04:55 12° NNE 23:06:42 10° ENE
STARLINK-1218 3.9 23:01:06 10° WNW 23:05:14 65° NNE 23:07:55 21° E
Cosmos 1726 2.3 23:03:07 10° NNW 23:06:47 57° W 23:07:20 50° SW
Cosmos 1174 3.2 23:06:36 78° SSW 23:06:49 88° SE 23:10:35 10° NE
ALOS 2 2.5 23:07:47 48° SSE 23:09:00 89° WSW 23:13:25 10° NNW
Timation 2 Rocket 4.2 23:03:05 10° NNW 23:09:25 66° ENE 23:12:55 26° SE
STARLINK-1254 3.8 23:06:04 10° WNW 23:10:13 69° NNE 23:12:41 23° ESE
Cosmos 2058 Rocket 4.2 23:06:19 10° N 23:10:25 35° ENE 23:11:58 27° ESE
COSMOS 2487 2.6 23:07:02 10° NNW 23:10:27 56° WSW 23:10:32 56° WSW
CENTAUR R/B 3.6 23:06:27 10° NW 23:14:09 47° WSW 23:18:17 29° S
STARLINK-1231 3.8 23:11:02 10° WNW 23:15:11 72° NNE 23:17:27 26° ESE
Meteor 1-16 Rocket 4.2 23:10:18 10° NNW 23:15:46 66° W 23:17:49 38° SSW
Meteor 2-5 Rocket 4.1 23:14:12 35° SSE 23:16:11 51° E 23:21:38 10° NNE
Cosmos 1867 4.0 23:12:04 10° NW 23:17:16 46° WSW 23:18:45 37° SSW
ATLAS 3B R/B 2.7 23:10:49 10° NW 23:17:36 75° SW 23:21:09 31° SSE
FALCON 9 DEB 3.4 23:20:08 54° E 23:20:08 54° E 23:22:57 10° ENE
SL-14 R/B 4.4 23:19:11 28° ESE 23:19:35 29° E 23:22:56 10° NNE
STARLINK-1232 3.7 23:16:02 10° WNW 23:20:12 76° NNE 23:22:15 29° ESE
Cosmos 1606 Rocket 3.4 23:16:12 10° N 23:20:34 83° E 23:21:36 51° SSE
SeaSat 1 2.9 23:16:28 10° NNE 23:21:20 60° NW 23:24:20 23° SW
Cosmos 1943 Rocket 4.2 23:17:14 10° W 23:21:45 25° NW 23:26:20 10° N
Cosmos 2098 Rocket 4.3 23:20:08 32° S 23:23:50 85° E 23:31:21 10° N
STARLINK-29 3.1 23:24:02 61° WNW 23:24:23 69° NNW 23:27:35 10° ENE
STARLINK-1208 3.6 23:20:59 10° WNW 23:25:09 81° NNE 23:27:00 32° ESE
NOSS 5 (C) 4.5 23:22:19 10° NW 23:25:31 65° SW 23:25:32 65° SW
ATLAS CENTAUR R/B 3.0 23:25:47 10° NNW 23:27:42 26° NE 23:30:48 10° E
STARLINK-1373 4.4 23:30:05 34° ESE 23:30:05 34° ESE 23:32:42 10° ENE
NOSS 3-4 (A) 3.8 23:23:53 12° SW 23:29:23 63° NW 23:35:48 10° NE
NOSS 3-4 (C) 3.8 23:24:02 12° SW 23:29:29 64° NW 23:35:54 10° NE
STARLINK-1271 3.5 23:26:00 10° WNW 23:30:10 85° NNE 23:31:49 36° ESE
STARLINK-1365 4.2 23:31:11 37° ESE 23:31:11 37° ESE 23:33:58 10° ENE
RESURS DK-1 2.3 23:29:48 58° SSE 23:30:23 67° ESE 23:34:31 10° NNE
STARLINK-1390 4.2 23:33:34 37° ESE 23:33:34 37° ESE 23:36:20 10° ENE
Cosmos 2315 Rocket 4.0 23:28:06 10° NNW 23:34:17 71° W 23:36:59 35° S
Cosmos 2084 3.5 23:33:36 53° S 23:34:19 61° SE 23:38:44 10° NE
STARLINK-1154 3.5 23:30:58 10° WNW 23:35:09 90° NNW 23:36:36 40° ESE
BREEZE-M R/B 3.9 23:31:45 25° SW 23:35:32 47° SSE 23:39:28 10° E
Cosmos 1626 2.6 23:36:00 44° ESE 23:36:18 45° E 23:39:52 10° NNE
Cosmos 1340 Rocket 4.0 23:33:49 10° NNW 23:37:23 30° W 23:38:06 28° WSW
Cosmos 2369 Rocket 4.1 23:33:30 10° WSW 23:38:11 26° NW 23:42:51 10° N
ATLAS CENTAUR R/B 2.2 23:35:43 22° WSW 23:38:11 48° NW 23:42:10 10° NNE
Okean 1-7 Rocket 3.8 23:37:39 45° SE 23:38:43 58° E 23:43:12 10° NNE
Cosmos 2227 Rocket 3.3 23:33:31 10° NNW 23:38:53 40° NE 23:43:29 13° ESE
STARLINK-1197 3.5 23:35:57 10° WNW 23:40:06 85° SSW 23:41:21 44° SE
Cosmos 1908 3.6 23:38:22 10° NNW 23:42:04 49° W 23:42:29 47° WSW
Nadezhda 2 Rocket 4.4 23:39:44 37° S 23:42:21 80° E 23:48:31 10° N
CZ-4 R/B 4.5 23:38:05 10° NNE 23:42:37 42° E 23:43:50 35° SE
Aureole 3 4.3 23:42:01 10° NNW 23:44:31 25° W 23:44:31 25° W
STARLINK-1198 3.4 23:40:55 10° WNW 23:45:04 80° SSW 23:46:07 49° SE
Cosmos 1953 4.1 23:42:35 10° NW 23:45:34 20° W 23:46:22 19° WSW
STARLINK-1199 3.4 23:45:55 10° WNW 23:50:04 75° SSW 23:50:56 53° SE
Landsat 4 3.5 23:46:48 10° NNE 23:50:32 89° WNW 23:51:00 67° SSW
STARLINK-1210 3.5 23:50:54 10° WNW 23:55:02 70° SSW 23:55:41 57° SSE
